GFSNW_850_rhum_144.txt.gz
RH
47 50 48 47 37 42 50 63 59 37 48 57 73 74 52 48 50 48 46 44 46 39 38 43 48 51 45 47 46 42 48 65 80 44 52 50 47 43 49 50 34 56 56 49
39 47 48 46 43 34 41 52 52 46 51 72 80 54 57 56 51 53 51 47 47 40 45 45 55 59 53 49 56 50 43 52 72 43 45 51 55 55 47 49 60 55 46 29
40 41 46 45 45 36 40 51 72 46 43 50 58 54 56 55 54 52 48 46 44 40 41 45 59 62 55 51 56 50 46 52 43 39 36 55 52 59 57 52 79 56 52 32
42 40 43 46 44 47 50 46 49 58 61 48 46 48 54 59 53 52 50 46 46 44 46 44 57 64 63 57 57 55 55 42 61 51 48 49 45 48 59 65 56 48 36 46
45 40 39 43 45 44 45 44 52 48 48 44 41 49 51 54 50 49 50 48 43 42 43 41 52 61 61 56 67 58 63 45 64 70 51 60 62 57 53 59 55 58 50 55
47 46 41 38 43 44 48 47 42 47 48 47 44 49 44 46 46 48 47 43 47 46 51 46 45 44 47 50 66 72 70 74 79 50 68 58 39 48 54 55 50 45 55 41
47 49 47 42 42 44 46 47 46 49 60 51 42 43 42 51 48 50 49 46 44 50 48 46 46 44 47 52 64 60 77 74 80 86 52 38 26 37 38 49 46 49 44 44
42 54 49 47 46 48 49 46 47 56 73 50 42 47 51 52 49 50 50 54 52 46 45 53 51 57 46 60 70 64 66 74 80 79 85 50 36 42 41 47 40 47 46 49
38 57 56 50 46 50 52 52 48 48 64 62 42 46 47 58 57 54 58 58 56 51 57 54 43 49 47 63 68 66 75 73 69 83 82 53 31 36 36 34 46 44 42 50
77 58 66 60 51 51 54 54 52 51 56 60 43 43 49 46 52 61 64 59 57 55 70 62 62 62 46 56 71 83 85 83 90 82 84 70 48 36 36 39 39 45 43 44
99 80 76 71 65 58 60 58 57 52 52 59 62 48 49 49 48 62 60 61 67 72 66 65 67 69 53 51 61 78 82 90 96 87 87 80 42 40 41 38 46 43 42 42
96 99 96 80 75 70 69 64 61 60 56 55 64 61 57 52 51 51 56 56 63 54 73 81 74 64 64 54 50 64 63 58 73 73 66 41 39 40 34 39 40 42 40 41
95 98 98 99 84 81 76 73 68 63 59 61 68 63 60 60 58 56 56 60 52 59 58 64 71 65 66 64 67 54 52 49 62 60 48 51 44 40 42 40 40 41 40 41
95 94 95 98 98 93 87 80 74 67 60 68 66 66 65 63 64 63 59 61 61 61 61 59 76 74 56 71 62 63 49 53 57 61 50 44 45 44 42 42 42 42 43 42
90 92 93 92 96 99 96 88 81 75 66 68 77 69 68 65 63 65 70 71 65 62 65 86 88 77 81 77 79 83 52 58 60 52 41 40 39 38 43 45 44 43 39 30
91 90 92 97 95 97 100 89 78 78 75 65 79 75 79 73 72 74 71 78 77 70 68 77 74 80 75 92 92 61 51 49 46 47 46 44 44 42 47 48 45 39 28 23
89 90 91 97 100 99 98 84 73 65 67 64 65 91 92 88 85 84 84 83 83 80 76 86 84 79 76 94 96 55 57 58 55 52 52 52 49 48 50 47 41 28 24 23
95 88 90 100 100 100 99 94 74 66 71 67 92 84 87 85 86 88 90 90 89 88 85 94 94 86 86 98 75 67 63 64 63 56 54 54 52 52 50 43 31 26 22 20
100 98 98 100 100 100 98 95 94 90 78 72 92 84 79 88 94 91 92 92 98 94 99 98 94 95 98 83 76 72 66 67 69 62 60 58 54 51 42 31 26 23 22 19
100 100 100 99 98 99 99 100 99 98 97 96 94 74 98 85 89 92 90 92 96 100 91 85 99 95 73 70 66 59 61 60 63 61 52 50 48 39 34 31 24 21 25 24
100 100 99 100 100 100 100 100 99 100 99 99 96 79 97 84 93 95 91 98 99 97 89 97 94 96 74 62 55 71 66 64 67 58 53 45 40 34 26 24 32 33 35 31
100 97 99 99 100 100 98 98 99 98 97 98 99 96 83 90 90 93 100 97 98 98 92 97 92 85 68 62 72 65 69 69 59 47 38 29 22 24 30 46 45 48 48 42
100 98 99 99 99 97 97 97 98 100 91 95 99 99 82 88 91 98 98 98 95 89 91 90 89 70 66 72 60 53 52 47 40 29 25 33 40 44 43 48 50 54 48 33
97 98 97 97 97 95 92 89 90 74 79 93 84 98 86 89 97 97 97 88 94 98 95 95 90 57 61 72 54 50 45 34 29 34 36 34 35 42 47 41 46 56 44 32
99 99 97 98 89 96 83 81 93 92 88 84 90 94 86 100 97 97 95 98 94 86 91 90 48 45 41 42 39 39 40 45 45 39 37 43 43 32 24 22 36 33 32 37
97 98 97 99 97 100 96 98 100 92 87 75 76 98 100 99 90 98 88 94 93 85 92 48 53 53 49 44 41 39 38 38 36 34 33 34 36 36 39 44 42 40 43 42
97 98 91 86 84 93 95 95 94 90 78 99 95 100 95 96 100 98 96 96 90 75 66 52 52 48 40 42 42 30 26 36 41 43 44 45 45 48 48 42 35 40 39 40

GFSNW_850_rhum_150.txt.gz
RH
34 30 35 40 44 31 33 49 51 47 49 52 76 78 56 51 52 50 49 47 46 40 42 45 51 47 50 56 53 45 52 55 72 43 57 56 49 48 52 48 36 60 50 49
35 32 30 36 39 44 39 47 47 44 38 72 81 57 58 62 61 59 51 52 49 45 51 45 59 58 57 58 56 45 40 45 62 40 42 52 62 62 48 52 58 63 47 30
27 34 30 29 37 44 42 41 69 36 36 48 54 48 53 52 55 54 52 50 45 42 47 56 61 60 61 58 57 54 44 55 34 33 30 50 62 60 59 47 77 48 47 34
25 34 33 28 31 41 37 38 61 59 63 54 53 49 53 49 45 53 49 48 51 45 44 48 59 65 60 60 59 55 43 39 58 51 46 53 50 45 67 62 49 43 30 42
28 37 38 32 29 34 46 38 48 46 53 49 43 55 54 48 52 49 48 46 48 45 45 41 40 59 58 48 60 59 63 48 62 62 60 59 64 61 60 66 62 66 54 55
34 36 42 39 33 33 44 47 47 47 55 52 47 48 48 48 48 50 51 47 49 47 49 48 50 51 52 53 57 66 63 66 67 40 66 52 35 45 58 55 61 51 56 35
40 35 44 45 41 37 43 46 49 50 60 55 44 45 46 50 47 44 51 47 42 52 52 48 45 45 62 64 74 66 72 68 76 81 46 38 21 32 36 51 49 54 48 44
57 43 42 52 49 43 44 48 48 54 67 58 47 49 53 54 52 53 53 55 52 51 45 48 46 52 44 65 78 72 69 74 81 78 76 44 29 40 42 40 36 40 48 45
70 55 40 56 58 53 46 51 52 51 59 54 44 51 53 61 60 58 62 59 54 50 54 49 46 52 43 53 69 74 77 74 68 81 78 51 30 37 37 38 43 38 46 48
79 73 55 58 62 61 56 57 58 56 56 54 45 47 53 49 55 64 65 62 62 55 64 54 56 57 48 55 64 88 86 85 89 82 84 70 48 37 36 40 35 39 43 43
85 82 77 73 78 68 63 60 63 62 56 53 58 50 46 50 51 63 63 60 65 69 60 62 62 60 59 56 58 80 82 92 96 89 91 84 46 42 40 35 35 37 38 38
92 84 81 81 76 84 75 68 68 68 65 59 58 61 62 51 50 50 57 56 62 54 70 72 75 70 72 57 56 68 63 61 75 75 69 45 39 34 31 34 36 36 36 36
98 95 90 87 92 85 83 78 74 72 68 60 62 63 63 66 62 56 56 61 55 55 49 62 76 68 68 67 68 54 59 56 61 59 41 52 40 39 37 38 39 40 38 38
96 94 96 93 98 98 98 94 82 79 72 73 62 60 68 68 67 64 62 63 61 63 61 64 82 76 57 70 62 58 51 60 62 69 53 41 35 37 39 39 41 43 44 43
100 100 99 92 92 92 96 99 96 88 74 75 67 67 65 64 65 67 68 67 68 69 69 85 82 71 77 85 84 86 58 58 65 65 44 45 44 46 51 50 46 44 48 48
99 100 100 97 92 89 91 92 75 88 94 83 89 74 76 72 72 73 70 75 75 70 68 72 70 76 77 92 94 63 51 48 48 51 57 59 56 52 50 53 52 51 52 52
100 99 100 100 95 94 98 83 83 77 99 82 72 78 87 86 83 84 86 85 84 78 73 85 84 82 82 95 98 54 45 54 60 63 64 60 56 56 53 52 54 54 51 39
98 96 100 100 100 100 100 86 85 70 89 72 92 86 78 90 90 89 91 91 88 88 86 92 97 91 97 99 80 67 65 64 62 63 62 67 61 57 56 53 53 48 37 29
42 100 99 100 100 100 98 100 96 84 73 79 89 86 81 91 94 93 95 93 97 94 97 97 97 94 97 82 78 72 72 72 68 64 62 62 62 63 57 52 46 35 28 24
40 76 100 100 100 98 98 100 100 100 95 94 94 73 95 84 96 98 94 98 98 96 87 97 99 90 74 74 75 74 64 59 64 72 71 66 65 62 55 47 39 29 22 24
86 99 100 100 100 100 100 100 100 100 99 99 97 70 96 82 93 94 89 97 95 100 89 96 92 91 82 72 66 58 59 66 71 70 72 70 57 56 50 37 26 26 36 45
98 94 99 99 100 100 99 98 100 99 94 100 99 94 74 83 79 91 99 99 98 99 90 89 92 87 66 64 60 60 66 67 68 62 52 48 47 47 38 29 42 44 47 50
100 90 99 100 99 98 98 97 99 99 99 100 99 99 86 93 86 96 98 99 94 93 95 92 90 65 62 60 59 48 51 49 42 36 36 30 29 27 27 36 44 46 41 36
92 98 98 98 97 96 95 92 90 78 87 100 87 100 87 94 96 96 96 90 88 95 98 94 90 61 60 65 52 44 35 30 27 25 27 36 41 39 40 41 35 32 30 32
80 99 97 97 83 87 86 74 77 86 92 90 88 92 88 100 98 91 96 99 96 93 90 89 58 64 63 52 44 35 30 30 29 29 30 30 32 30 30 28 29 30 34 40
95 97 99 100 98 100 99 96 100 99 95 72 67 98 97 100 97 97 96 95 95 84 90 56 49 47 36 33 30 30 32 32 28 26 33 38 40 40 41 38 29 27 34 38
96 98 100 87 90 92 100 99 99 93 74 92 92 90 81 96 100 100 93 93 88 59 57 53 39 38 42 37 34 30 26 24 25 31 37 38 34 36 34 30 28 34 35 35

GFSNW_850_rhum_153.txt.gz
RH
35 34 28 26 34 40 36 43 58 43 43 51 77 74 60 54 55 52 50 49 44 43 48 56 54 52 60 61 59 48 54 52 67 44 59 58 51 46 43 38 32 58 46 42
28 35 31 26 29 40 39 40 40 35 34 71 80 59 58 62 58 58 54 56 50 47 50 48 58 60 58 58 60 54 41 42 60 39 41 53 63 60 49 50 56 58 41 24
24 32 36 28 26 36 40 33 65 34 35 50 54 47 51 52 55 56 53 50 45 43 51 60 60 59 62 60 62 54 43 55 32 30 29 52 59 63 55 46 65 45 45 30
29 28 36 33 24 31 35 37 60 59 59 55 56 49 50 44 43 51 48 47 49 43 43 45 62 65 58 59 57 54 41 37 57 46 45 51 50 46 69 56 48 36 28 37
35 30 32 35 29 27 38 39 48 47 57 53 43 53 56 45 54 47 46 47 50 46 43 37 41 57 54 43 57 59 57 54 58 54 56 58 61 58 59 65 62 63 57 52
35 35 33 37 33 29 41 46 48 48 58 52 45 48 49 48 46 53 52 48 51 49 52 50 52 53 56 54 54 65 58 64 59 34 60 51 31 37 62 58 61 57 54 31
39 39 37 38 40 34 40 48 50 51 60 57 44 47 48 50 48 43 54 48 42 54 53 48 46 56 65 67 77 65 66 65 72 71 39 34 20 29 36 48 46 56 50 45
47 44 40 38 46 45 41 44 48 56 66 62 50 49 54 55 53 56 55 58 56 54 47 46 46 50 46 69 80 77 69 68 81 70 70 41 32 41 42 36 34 42 49 45
69 52 41 41 44 50 46 45 49 51 60 48 48 52 53 60 60 58 63 60 56 51 52 48 46 51 42 48 66 76 75 73 64 74 64 46 32 36 37 38 39 33 43 46
80 77 64 44 47 55 52 51 51 52 57 55 48 50 54 50 56 64 66 63 61 53 61 52 54 57 47 50 58 84 87 87 84 77 78 66 47 38 38 36 34 34 39 40
86 84 84 75 54 66 65 56 56 57 54 53 56 51 48 52 52 63 62 63 66 69 61 62 63 59 57 55 56 77 77 91 94 88 89 77 46 44 38 33 32 34 35 35
94 91 86 86 76 72 77 71 66 65 60 57 57 57 59 53 49 50 58 58 61 54 72 74 74 70 76 62 57 67 64 62 72 74 66 45 41 37 33 35 37 38 40 39
100 98 94 90 86 88 82 86 78 73 69 62 63 62 60 62 63 54 54 60 54 53 51 59 73 67 72 70 71 55 59 57 63 55 42 54 40 38 39 40 41 42 42 43
100 100 94 92 88 91 97 94 91 83 74 76 64 59 64 65 67 65 61 61 59 62 59 63 81 75 58 72 63 58 50 61 65 69 54 40 35 39 43 48 51 52 50 48
100 100 100 100 93 89 92 97 98 98 78 79 70 69 67 65 66 70 72 70 69 69 71 84 84 72 76 86 85 86 59 63 66 63 44 47 46 48 53 54 51 49 52 52
100 100 100 100 99 94 98 91 80 87 100 88 92 74 76 73 76 77 74 79 77 71 67 73 71 74 75 92 94 63 45 48 45 49 54 57 59 59 56 55 53 52 54 55
78 98 100 100 100 98 99 77 79 77 99 88 82 76 86 88 86 87 85 83 83 78 73 84 82 82 83 94 97 60 46 50 54 61 66 64 60 61 60 57 55 54 55 52
35 69 99 100 100 100 100 87 89 83 92 82 93 89 75 93 92 90 92 91 90 89 86 93 96 94 97 98 84 64 64 65 64 65 67 67 64 61 63 60 56 54 46 37
36 33 61 100 100 100 98 98 99 98 85 79 95 90 86 93 94 95 97 94 97 96 98 97 96 92 97 84 76 69 70 68 67 66 66 64 65 63 61 61 56 50 38 32
48 42 85 100 100 99 98 100 100 100 99 99 97 80 97 90 97 99 96 99 98 98 89 97 100 86 74 69 72 77 74 66 59 61 62 67 65 63 63 60 51 41 31 26
95 99 97 98 100 100 100 100 100 100 99 100 98 71 95 82 93 97 91 95 94 100 93 95 92 91 80 71 69 64 60 56 62 71 69 70 68 59 58 50 40 29 28 40
93 100 99 99 100 100 100 98 99 99 96 100 99 94 72 79 74 87 99 98 98 97 93 91 93 86 65 68 62 58 61 67 68 64 52 48 50 53 47 37 30 41 44 47
99 98 93 100 99 98 98 96 98 99 100 100 99 99 80 90 80 97 98 100 96 95 98 93 90 65 63 62 60 55 58 51 43 42 39 36 35 33 30 31 38 42 40 36
99 99 99 98 98 95 93 92 91 81 92 99 87 100 91 95 98 98 96 91 92 98 98 95 90 60 57 60 54 42 39 36 29 26 30 38 43 41 39 38 35 33 30 29
99 97 96 98 82 82 84 76 76 84 92 93 87 91 88 98 97 96 95 97 97 94 91 88 55 56 59 61 50 43 40 37 34 29 27 25 24 23 23 26 30 32 32 30
99 96 99 99 95 100 97 96 91 94 98 78 72 96 97 97 96 97 93 93 93 85 90 55 54 60 62 51 39 34 32 30 28 29 27 26 30 40 39 34 27 26 30 32
98 99 98 86 91 88 100 98 95 97 86 91 91 97 91 96 98 98 94 94 87 60 55 54 57 52 36 33 34 34 31 28 28 27 29 34 36 34 29 24 25 34 34 36

GFSNW_850_rhum_156.txt.gz
RH
26 30 29 23 23 34 33 37 52 35 37 50 58 60 53 57 51 57 46 44 40 38 41 42 42 40 49 58 55 41 41 30 42 37 50 50 44 35 26 21 28 33 27 22
26 27 29 26 21 32 32 31 34 31 30 54 56 55 54 59 50 53 47 47 42 41 44 42 48 52 56 60 51 41 35 32 40 33 39 46 44 44 37 31 32 32 21 12
30 26 27 27 22 31 34 29 58 34 32 46 40 42 44 48 54 52 51 46 42 39 42 45 47 48 56 61 60 51 42 35 24 19 26 37 43 49 40 30 37 22 20 12
29 29 28 27 25 25 33 34 52 50 54 44 46 43 42 38 40 48 46 42 42 39 36 37 47 53 50 54 57 48 31 34 44 37 37 41 40 38 49 40 28 22 17 24
31 32 30 28 27 22 32 43 50 47 55 54 39 45 49 42 51 44 41 43 45 39 36 38 36 46 42 41 44 46 39 51 45 47 46 45 42 33 35 41 39 40 35 34
41 35 34 31 29 26 31 42 46 47 56 43 35 42 47 47 46 53 53 46 43 44 51 52 55 56 58 52 42 46 40 44 41 31 40 34 29 22 33 37 39 33 28 20
74 38 38 36 34 31 29 35 45 50 47 44 36 46 48 48 48 45 55 50 39 57 52 48 51 57 58 56 60 53 42 42 50 50 31 40 22 25 30 31 28 32 33 29
87 61 37 40 41 37 36 35 39 49 46 57 49 48 51 55 55 55 55 60 57 55 47 38 38 38 40 54 63 62 49 43 51 51 39 28 31 34 34 31 27 28 31 30
89 75 57 39 42 45 42 42 42 44 50 41 48 50 53 44 47 52 66 61 57 52 42 36 41 36 38 43 56 64 57 46 42 49 48 34 26 32 36 34 30 29 36 35
96 84 71 62 43 45 51 49 47 47 51 52 49 46 47 50 53 46 63 66 61 52 43 41 42 43 42 39 44 61 65 64 59 49 50 37 30 35 41 34 31 35 38 39
99 89 81 74 69 48 57 54 53 52 51 51 54 50 47 51 52 45 63 58 61 55 46 44 46 44 40 42 42 52 49 59 61 61 64 61 42 41 34 30 32 35 40 42
100 95 89 82 78 64 65 66 62 62 58 57 55 57 59 51 48 49 57 57 59 53 50 53 49 48 51 41 36 54 47 42 42 46 39 44 43 39 33 34 41 44 46 47
100 99 98 93 87 81 66 81 73 69 66 61 63 58 58 60 61 54 56 58 53 52 49 53 53 54 50 49 47 43 43 50 45 41 31 41 42 41 40 45 45 48 52 52
100 100 100 100 94 90 86 81 82 79 71 76 62 57 58 62 66 66 63 62 60 61 56 65 58 54 54 49 50 44 42 49 45 45 39 39 40 40 44 50 52 52 51 51
100 100 100 100 100 96 92 92 86 85 76 79 70 69 67 66 66 68 70 70 69 67 70 73 64 67 63 72 67 57 46 39 44 37 37 39 39 48 55 55 52 52 53 52
97 100 100 100 100 100 99 95 78 87 95 85 89 75 75 73 76 76 75 78 76 71 71 71 73 71 71 72 69 51 49 43 43 42 46 53 55 56 57 57 57 56 54 54
39 72 100 100 100 100 97 82 73 75 95 88 90 86 88 90 88 87 86 84 82 77 73 82 77 80 82 77 61 39 42 45 52 56 59 61 58 60 59 62 60 57 55 53
36 34 57 100 100 100 100 91 82 82 93 86 98 88 79 95 96 93 92 92 89 89 88 92 88 92 93 94 64 54 57 61 62 64 64 66 65 65 63 61 61 59 54 47
40 33 34 57 100 100 98 98 98 94 89 84 94 94 88 95 96 96 97 94 90 97 90 88 93 82 96 72 68 66 62 62 63 64 67 67 61 60 62 65 63 58 50 39
44 43 48 95 99 100 98 100 100 100 100 100 98 85 86 93 99 97 94 98 86 94 80 95 97 83 72 64 62 66 65 66 66 63 53 60 67 67 63 63 60 54 43 35
86 90 90 100 100 100 100 100 100 99 99 100 99 71 85 82 87 85 93 90 87 98 85 89 84 82 67 61 64 70 72 63 57 56 67 70 68 67 60 58 50 41 32 30
90 99 89 100 100 100 99 98 98 98 95 100 98 88 73 78 75 85 96 88 92 95 90 93 92 73 62 61 66 63 57 56 65 71 61 50 51 55 54 45 34 32 40 46
84 94 100 100 100 98 97 98 99 100 100 99 99 97 75 83 80 94 93 97 95 93 95 87 77 63 58 64 62 56 60 62 55 49 44 42 39 38 34 33 38 40 39 37
92 99 100 96 93 94 88 82 86 83 98 99 91 100 91 92 96 92 96 92 84 98 95 88 75 57 54 63 58 54 55 45 36 30 29 32 38 41 39 37 33 30 28 25
98 100 95 96 83 84 83 83 82 89 100 94 90 94 89 96 96 94 92 95 92 87 85 77 54 50 57 58 54 47 43 33 31 34 34 28 24 23 21 23 24 25 26 26
99 99 97 98 93 88 96 92 91 97 100 85 76 95 97 97 92 94 91 87 90 80 86 56 50 54 59 58 50 39 38 35 31 29 27 25 25 27 24 21 21 27 30 32
99 98 76 92 88 80 78 74 79 94 93 89 91 97 91 93 94 93 85 90 79 63 55 53 50 53 59 56 48 37 32 31 30 26 22 21 23 22 22 26 26 34 34 37